Regional Weather Roundup
Issued by NWS Kansas City/Pleasant Hill, MO

Home | Current Version | Previous Version | Text Only | Print | Product List | Glossary On
Versions: 1 2 3 4 5 6 7 8 9 10 11 12 13 14 15 16 17 18 19 20 21 22 23 24 25 26 27 28 29 30 31 32 33 34 35 36 37 38 39 40 41 42 43 44 45 46 47 48 49 50
012
ASUS43 KEAX 241610
RWREAX

WEATHER ROUNDUP FOR EASTERN KANSAS AND NORTHWEST MISSOURI
NATIONAL WEATHER SERVICE KANSAS CITY/PLEASANT HILL MO
1000 AM CST SAT FEB 24 2018

KSZ040-057-103>105-MOZ028-029-037-043-241700-
...KANSAS CITY METROPOLITAN AREA...

CITY           SKY/WX    TMP DP  RH WIND       PRES   REMARKS
K.C. INTL      DRIZZLE   35  34  96 E12       29.84F FOG     WCI  27
K.C. DOWNTOWN  CLOUDY    38  35  89 E6        29.84F FOG     WCI  33
LEES SUMMIT    CLOUDY    37  37 100 E7        29.83F FOG     WCI  32
OLATHE - IXD   FOG       36  36 100 E7        29.84F VSB 1   WCI  30
OLATHE - OJC   FOG       36  36 100 E6        29.83F VSB 1   WCI  31
LAWRENCE       CLOUDY    36  36 100 E6        29.84F FOG     WCI  31

$$

MOZ001>008-011>017-020>025-030>033-038>040-044>046-053-054-241700-
...NORTHERN AND CENTRAL MISSOURI...

CITY           SKY/WX    TMP DP  RH WIND       PRES   REMARKS
ST. JOSEPH     CLOUDY    33  33 100 E6        29.87F FOG     WCI  28
MOSBY          CLOUDY    36  34  93 E9        29.85F FOG     WCI  29
WARRENSBURG    CLOUDY    36  36 100 E9        29.83F FOG     WCI  29
WHITEMAN AFB   CLOUDY    39  37  93 E12       29.81F FOG     WCI  32
CLINTON        FOG       39  39 100 E12       29.84F VSB 3/4 WCI  32
SEDALIA        CLOUDY    40  40 100 E14       29.86F FOG     WCI  32
WARSAW         NOT AVBL
CHILLICOTHE      N/A     35  34  96 E12       29.89F WCI  27
KIRKSVILLE     FOG       33  33 100 E10       29.93F VSB 1   WCI  25

$$

MOZ041-047>049-056>058-063>065-088>090-097-241700-
...EASTERN AND SOUTHERN MISSOURI...

CITY           SKY/WX    TMP DP  RH WIND       PRES   REMARKS
ST. LOUIS INTL CLOUDY    43  43 100 NE6       29.96F
SPIRIT OF STL  CLOUDY    43  43 100 NE7       29.96F FOG
COLUMBIA       FOG       40  39  97 E12       29.90F VSB 1   WCI  33
JEFFERSON CITY CLOUDY    41  40  96 E8        29.91F FOG
ROLLA          CLOUDY    49  49 100 SE10      29.89F
OSAGE BEACH    CLOUDY    45  45 100 MISG      29.86F FOG
SPRINGFIELD    CLOUDY    52  51  97 SE13      29.81F
BRANSON        FOG       48  48 100 SE9       29.87F VSB 1/4
JOPLIN         FOG       45  45 100 SW6       29.85S VSB 1/4
WEST PLAINS    FOG       50  49  96 E8        29.91F VSB 1/2

$$

IAZ060-094-KSZ022-034>040-054-083-096-NEZ052-066-093-241700-
...KANSAS...SOUTHEAST NEBRASKA AND IOWA...

CITY           SKY/WX    TMP DP  RH WIND       PRES   REMARKS
TOPEKA         CLOUDY    37  37 100 E9        29.82F WCI  30
MANHATTAN      CLOUDY    34  32  92 NE6       29.81F WCI  29
EMPORIA        FOG       33  32  96 E8        29.81F VSB 3/4 WCI  26
CHANUTE        FOG       38  37  97 SE8       29.86S VSB 1/4 WCI  32
WICHITA        CLOUDY    35  34  96 N7        29.83S WCI  29
OMAHA          FRZ DRZL  27  26  96 CALM      29.91F VSB 1
LINCOLN        CLOUDY    27  24  89 N5        29.89F FOG     WCI  22
FALLS CITY     FOG       30  29  96 NE6       29.85F VSB 1   WCI  24
LAMONI         CLOUDY    31  29  92 E8        29.89F FOG     WCI  23
DES MOINES     FRZ DRZL  31  28  89 E13       29.93F WCI  21

$$





USA.gov is the U.S. government's official web portal to all federal, state and local government web resources and services.